This is the latest recevied weather packets stored in our database for station/object K7DC. If no packets are shown the sender has not sent any weather packets the latest 10 day(s).
| Time | Temp. | Humidity | Pressure | Rain* | Wind** | Luminosity | Snow |
|---|---|---|---|---|---|---|---|
| 1777488086 | 26.67° C | 16% | 1016.5 hPa | 0 mm | - | 942 W/m² | - |
| 1777487782 | 26.67° C | 16% | 1016.7 hPa | 0 mm | - | 940 W/m² | - |
| 1777487481 | 26.67° C | 16% | 1016.5 hPa | 0 mm | - | 985 W/m² | - |
| 1777487178 | 26.67° C | 16% | 1016.7 hPa | 0 mm | - | 625 W/m² | - |
| 1777486873 | 26.11° C | 17% | 1016.7 hPa | 0 mm | - | 348 W/m² | - |
| 1777486571 | 26.67° C | 17% | 1016.8 hPa | 0 mm | - | 518 W/m² | - |
| 1777486268 | 27.22° C | 16% | 1016.8 hPa | 0 mm | - | 374 W/m² | - |
| 1777485965 | 26.11° C | 17% | 1016.8 hPa | 0 mm | - | 698 W/m² | - |
| 1777485661 | 25.56° C | 17% | 1016.7 hPa | 0 mm | - | 442 W/m² | - |
| 1777485356 | 25.56° C | 18% | 1016.9 hPa | 0 mm | - | 381 W/m² | - |
| 1777485053 | 25.56° C | 18% | 1017 hPa | 0 mm | - | 619 W/m² | - |
| 1777484750 | 25.56° C | 19% | 1017.1 hPa | 0 mm | - | 681 W/m² | - |
| 1777484446 | 24.44° C | 19% | 1017.1 hPa | 0 mm | - | 435 W/m² | - |
| 1777484144 | 23.89° C | 21% | 1017 hPa | 0 mm | - | 437 W/m² | - |
| 1777483839 | 24.44° C | 20% | 1016.9 hPa | 0 mm | - | 325 W/m² | - |
| 1777483537 | 23.89° C | 20% | 1017.1 hPa | 0 mm | - | 279 W/m² | - |
| 1777483231 | 23.89° C | 20% | 1017.1 hPa | 0 mm | - | 264 W/m² | - |
| 1777482928 | 24.44° C | 20% | 1017.1 hPa | 0 mm | - | 351 W/m² | - |
| 1777482624 | 24.44° C | 20% | 1017.1 hPa | 0 mm | - | 302 W/m² | - |
| 1777482321 | 24.44° C | 20% | 1017.3 hPa | 0 mm | - | 335 W/m² | - |
| 1777482019 | 24.44° C | 20% | 1017.2 hPa | 0 mm | - | 378 W/m² | - |
| 1777481716 | 25° C | 20% | 1017.1 hPa | 0 mm | - | 313 W/m² | - |
| 1777481413 | 24.44° C | 21% | 1016.9 hPa | 0 mm | - | 391 W/m² | - |
| 1777481109 | 24.44° C | 21% | 1017.2 hPa | 0 mm | - | 262 W/m² | - |
| 1777480806 | 23.89° C | 21% | 1017 hPa | 0 mm | - | 463 W/m² | - |
* Rain latest hour (hover to see other rain measurements)
** Current wind speed in m/s (hover to see current wind gust speed)